User: anonymous   Login
Location: Delta State University
(33.7460°N, 90.7320°W)
Time: 10:15:56
(UTC-05:00)
Language:

Iridium 13 - Orbit

View from above orbital plane
View from above orbital plane
View from above satellite
View from above satellite

Ground track
Ground track

The orbit data is extracted from the following two-line orbital elements,

1 24840U 97030E   16272.67783497 -.00000024  00000-0 -15691-4 0  9990
2 24840  86.3920  99.5520 0001896  78.8056 281.3352 14.34217029  9462
Epoch (UTC): 28 September 2016 16:16:04
Eccentricity: 0.0001896
inclination: 86.3920°
perigee height: 776 km
apogee height: 779 km
right ascension of ascending node: 99.5520°
argument of perigee: 78.8056°
revolutions per day: 14.34217029
mean anomaly at epoch: 281.3352°
orbit number at epoch: 946

The dashed part of the orbit path shows where the satellite is in the earth's shadow,  

DLR